RYR724W EGSS-EDDG

Flight info

Callsign RYR724W
Flight time 0h 47m
Altitude 33000
Route CLN P44 RATLO M197 REDFA L620 HMM
Aircraft B738/M-SDE2E3FGHIRWXY/LB1

Departure

Time 2026-05-04 11:29
Airport London Stansted Airport (EGSS)

Arrival

Time 2026-05-04 12:17
Airport Münster Osnabrück Airport (EDDG)
Time Latitude Longitude Altitude Speed Heading
2026-05-04 10:56 51.89345 0.26039 356 ft 0 kts 223°
2026-05-04 11:19 51.89374 0.26136 348 ft 0 kts 308°
2026-05-04 11:22 51.89442 0.25678 349 ft 13 kts 223°
2026-05-04 11:22 51.89382 0.25580 352 ft 12 kts 227°
2026-05-04 11:23 51.89344 0.25527 348 ft 7 kts 218°
2026-05-04 11:23 51.89308 0.25476 348 ft 8 kts 223°
2026-05-04 11:24 51.88744 0.24630 348 ft 22 kts 223°
2026-05-04 11:25 51.88635 0.24467 348 ft 21 kts 223°
2026-05-04 11:25 51.88528 0.24306 354 ft 21 kts 223°
2026-05-04 11:25 51.88400 0.24114 350 ft 29 kts 223°
2026-05-04 11:26 51.88121 0.23693 352 ft 26 kts 223°
2026-05-04 11:27 51.87569 0.22566 354 ft 21 kts 224°
2026-05-04 11:28 51.87527 0.22397 335 ft 12 kts 314°
2026-05-04 11:28 51.87596 0.22298 335 ft 14 kts 322°
2026-05-04 11:28 51.87687 0.22273 333 ft 14 kts 22°
2026-05-04 11:28 51.87762 0.22373 340 ft 17 kts 43°
2026-05-04 11:29 51.88046 0.22799 336 ft 96 kts 43°
2026-05-04 11:29 51.88719 0.23802 348 ft 164 kts 42°
2026-05-04 11:29 51.89589 0.25114 1138 ft 175 kts 42°
2026-05-04 11:29 51.90482 0.26499 2096 ft 183 kts 43°
2026-05-04 11:31 51.88372 0.42765 6669 ft 279 kts 117°
2026-05-04 11:33 51.85652 0.64180 13194 ft 290 kts 76°
2026-05-04 11:33 51.86182 0.67275 14291 ft 282 kts 77°
2026-05-04 11:33 51.86679 0.70366 14909 ft 291 kts 78°
2026-05-04 11:34 51.87174 0.73666 15242 ft 307 kts 78°
2026-05-04 11:34 51.87646 0.76956 16349 ft 294 kts 79°
2026-05-04 11:34 51.88087 0.80130 17359 ft 288 kts 80°
2026-05-04 11:34 51.88521 0.83357 17786 ft 304 kts 80°
2026-05-04 11:35 51.88976 0.86826 17962 ft 326 kts 80°
2026-05-04 11:35 51.89457 0.90540 18143 ft 348 kts 80°
2026-05-04 11:35 51.89941 0.94293 18504 ft 359 kts 80°
2026-05-04 11:35 51.90458 0.98323 18936 ft 370 kts 80°
2026-05-04 11:36 51.90804 1.01028 19344 ft 372 kts 80°
2026-05-04 11:36 51.91328 1.05135 20034 ft 374 kts 81°
2026-05-04 11:36 51.91854 1.09280 20653 ft 378 kts 81°
2026-05-04 11:36 51.92384 1.13471 21257 ft 382 kts 81°
2026-05-04 11:37 51.92946 1.17705 21852 ft 387 kts 79°
2026-05-04 11:37 51.93566 1.21968 22445 ft 391 kts 79°
2026-05-04 11:37 51.94209 1.26278 23023 ft 395 kts 79°
2026-05-04 11:37 51.94860 1.30627 23587 ft 399 kts 79°
2026-05-04 11:38 51.95513 1.35029 24071 ft 403 kts 79°
2026-05-04 11:38 51.96165 1.39460 24580 ft 405 kts 79°
2026-05-04 11:38 51.96818 1.43934 25064 ft 409 kts 80°
2026-05-04 11:38 51.97469 1.48431 25535 ft 412 kts 80°
2026-05-04 11:39 51.98124 1.52979 25995 ft 415 kts 80°
2026-05-04 11:39 51.98781 1.57557 26517 ft 416 kts 80°
2026-05-04 11:40 52.02621 1.84598 30150 ft 407 kts 82°
2026-05-04 11:41 52.03252 1.89091 30435 ft 413 kts 82°
2026-05-04 11:41 52.04548 1.98416 30593 ft 433 kts 82°
2026-05-04 11:42 52.05900 2.08162 30750 ft 451 kts 82°
2026-05-04 11:42 52.07297 2.18271 30990 ft 464 kts 82°
2026-05-04 11:42 52.08004 2.23406 31247 ft 467 kts 82°
2026-05-04 11:43 52.08711 2.28552 31751 ft 462 kts 82°
2026-05-04 11:43 52.09405 2.33612 32341 ft 458 kts 82°
2026-05-04 11:43 52.10094 2.38680 32631 ft 460 kts 82°
2026-05-04 11:43 52.10783 2.43780 32884 ft 463 kts 82°
2026-05-04 11:44 52.11481 2.48896 33028 ft 466 kts 80°
2026-05-04 11:44 52.13306 2.59059 33013 ft 466 kts 76°
2026-05-04 11:45 52.15290 2.69104 33022 ft 466 kts 76°
2026-05-04 11:45 52.17242 2.79211 33026 ft 469 kts 77°
2026-05-04 11:46 52.19157 2.89359 33007 ft 468 kts 77°
2026-05-04 11:46 52.21052 2.99507 33013 ft 468 kts 77°
2026-05-04 11:47 52.22943 3.09700 33011 ft 469 kts 78°
2026-05-04 11:47 52.24085 3.19968 33013 ft 465 kts 87°
2026-05-04 11:48 52.24884 3.30439 33009 ft 464 kts 89°
2026-05-04 11:48 52.24794 3.40851 33013 ft 458 kts 99°
2026-05-04 11:49 52.24305 3.51218 33012 ft 458 kts 100°
2026-05-04 11:49 52.23775 3.61595 33012 ft 460 kts 100°
2026-05-04 11:50 52.23262 3.71996 33011 ft 461 kts 100°
2026-05-04 11:50 52.22760 3.82364 33006 ft 461 kts 100°
2026-05-04 11:51 52.22251 3.92788 33007 ft 462 kts 100°
2026-05-04 11:51 52.21731 4.03232 32999 ft 462 kts 100°
2026-05-04 11:52 52.21202 4.13661 32993 ft 462 kts 100°
2026-05-04 11:52 52.20931 4.18906 32529 ft 466 kts 100°
2026-05-04 11:52 52.20660 4.24142 32156 ft 459 kts 100°
2026-05-04 11:52 52.20400 4.29152 31705 ft 455 kts 100°
2026-05-04 11:53 52.20132 4.34265 31270 ft 451 kts 100°
2026-05-04 11:53 52.19864 4.39325 30823 ft 447 kts 100°
2026-05-04 11:53 52.19594 4.44353 30393 ft 443 kts 100°
2026-05-04 11:53 52.19326 4.49328 29951 ft 439 kts 100°
2026-05-04 11:55 52.17459 4.82766 26873 ft 411 kts 99°
2026-05-04 11:55 52.17194 4.87376 26448 ft 408 kts 99°
2026-05-04 11:56 52.16931 4.91913 26016 ft 406 kts 99°
2026-05-04 11:56 52.16665 4.96481 25593 ft 405 kts 99°
2026-05-04 11:56 52.16397 5.01042 25171 ft 403 kts 99°
2026-05-04 11:56 52.16131 5.05562 24751 ft 401 kts 99°
2026-05-04 11:57 52.15863 5.10072 24335 ft 399 kts 98°
2026-05-04 11:57 52.15601 5.14461 23930 ft 397 kts 98°
2026-05-04 11:57 52.15355 5.18555 23547 ft 396 kts 98°
2026-05-04 11:57 52.15085 5.23008 23054 ft 394 kts 98°
2026-05-04 11:58 52.14816 5.27430 22613 ft 391 kts 98°
2026-05-04 11:58 52.14549 5.31810 22197 ft 388 kts 98°
2026-05-04 11:58 52.14281 5.36156 21777 ft 385 kts 98°
2026-05-04 11:58 52.14014 5.40467 21371 ft 381 kts 98°
2026-05-04 11:59 52.13747 5.44748 20966 ft 378 kts 98°
2026-05-04 11:59 52.13481 5.48990 20562 ft 376 kts 98°
2026-05-04 11:59 52.13216 5.53196 20163 ft 373 kts 98°
2026-05-04 11:59 52.12949 5.57395 19763 ft 371 kts 98°
2026-05-04 12:00 52.12684 5.61556 19368 ft 369 kts 98°
2026-05-04 12:00 52.12418 5.65694 18974 ft 367 kts 98°
2026-05-04 12:00 52.12153 5.69810 18574 ft 365 kts 97°
2026-05-04 12:00 52.11886 5.73916 18164 ft 363 kts 97°
2026-05-04 12:01 52.11621 5.77991 17731 ft 362 kts 97°
2026-05-04 12:01 52.11355 5.82043 17308 ft 359 kts 97°
2026-05-04 12:02 52.09763 6.05917 14957 ft 348 kts 97°
2026-05-04 12:03 52.09463 6.09811 14613 ft 345 kts 99°
2026-05-04 12:03 52.09084 6.13640 14265 ft 342 kts 101°
2026-05-04 12:03 52.08679 6.17432 13898 ft 340 kts 101°
2026-05-04 12:03 52.08271 6.21199 13486 ft 338 kts 101°
2026-05-04 12:04 52.07866 6.24959 13074 ft 337 kts 101°
2026-05-04 12:04 52.07467 6.28698 12677 ft 335 kts 101°
2026-05-04 12:04 52.07072 6.32422 12294 ft 333 kts 101°
2026-05-04 12:04 52.06681 6.36117 11904 ft 331 kts 101°
2026-05-04 12:05 52.06292 6.39787 11520 ft 329 kts 101°
2026-05-04 12:05 52.05910 6.43393 11150 ft 327 kts 101°
2026-05-04 12:05 52.05524 6.47018 10770 ft 325 kts 101°
2026-05-04 12:05 52.05140 6.50625 10398 ft 323 kts 101°
2026-05-04 12:06 52.04761 6.54180 10238 ft 315 kts 101°
2026-05-04 12:06 52.04391 6.57634 10089 ft 306 kts 101°
2026-05-04 12:06 52.04030 6.60998 9890 ft 300 kts 101°
2026-05-04 12:06 52.03672 6.64326 9557 ft 298 kts 101°
2026-05-04 12:07 52.03315 6.67634 9233 ft 297 kts 101°
2026-05-04 12:07 52.02959 6.70920 8920 ft 295 kts 101°
2026-05-04 12:07 52.02603 6.74186 8612 ft 292 kts 101°
2026-05-04 12:07 52.02393 6.77452 8313 ft 291 kts 87°
2026-05-04 12:08 52.02634 6.80686 8059 ft 287 kts 82°
2026-05-04 12:08 52.02928 6.83887 7758 ft 286 kts 82°
2026-05-04 12:08 52.03223 6.87075 7454 ft 285 kts 82°
2026-05-04 12:08 52.03511 6.90259 7158 ft 285 kts 82°
2026-05-04 12:09 52.03793 6.93439 6849 ft 285 kts 83°
2026-05-04 12:09 52.04070 6.96625 6541 ft 284 kts 83°
2026-05-04 12:09 52.04343 6.99801 6233 ft 284 kts 83°
2026-05-04 12:09 52.04502 7.02982 5903 ft 282 kts 91°
2026-05-04 12:10 52.04470 7.06151 5600 ft 280 kts 92°
2026-05-04 12:10 52.04410 7.09271 5464 ft 273 kts 93°
2026-05-04 12:10 52.04351 7.12310 5338 ft 265 kts 93°
2026-05-04 12:10 52.04294 7.15263 5217 ft 258 kts 93°
2026-05-04 12:11 52.04240 7.18092 5114 ft 250 kts 93°
2026-05-04 12:11 52.04187 7.20885 5012 ft 244 kts 93°
2026-05-04 12:11 52.04265 7.23625 4920 ft 245 kts 78°
2026-05-04 12:11 52.04704 7.26306 4740 ft 248 kts 74°
2026-05-04 12:12 52.05223 7.29004 4485 ft 252 kts 72°
2026-05-04 12:12 52.05780 7.31715 4212 ft 253 kts 72°
2026-05-04 12:12 52.06341 7.34413 4042 ft 248 kts 72°
2026-05-04 12:12 52.06883 7.37018 3950 ft 239 kts 72°
2026-05-04 12:13 52.07410 7.39552 3647 ft 235 kts 72°
2026-05-04 12:14 52.10808 7.55839 1606 ft 196 kts 71°
2026-05-04 12:15 52.11235 7.57877 1364 ft 184 kts 71°
2026-05-04 12:15 52.11623 7.59729 1114 ft 166 kts 71°
2026-05-04 12:15 52.11972 7.61393 961 ft 145 kts 70°
2026-05-04 12:15 52.12296 7.62937 750 ft 145 kts 70°
2026-05-04 12:16 52.12617 7.64449 534 ft 139 kts 71°
2026-05-04 12:16 52.12928 7.65930 336 ft 139 kts 70°
2026-05-04 12:16 52.13238 7.67407 174 ft 135 kts 70°
2026-05-04 12:16 52.13503 7.68654 166 ft 89 kts 71°
2026-05-04 12:17 52.13649 7.69357 168 ft 54 kts 71°
2026-05-04 12:17 52.13741 7.69795 167 ft 29 kts 70°
2026-05-04 12:17 52.13722 7.70018 167 ft 17 kts 162°
2026-05-04 12:17 52.13647 7.70028 167 ft 10 kts 195°
2026-05-04 12:18 52.13601 7.69953 167 ft 10 kts 244°
2026-05-04 12:18 52.13567 7.69799 167 ft 18 kts 250°
2026-05-04 12:18 52.13526 7.69602 167 ft 18 kts 251°
2026-05-04 12:18 52.13485 7.69410 167 ft 18 kts 251°
2026-05-04 12:19 52.13436 7.69235 166 ft 17 kts 216°
2026-05-04 12:19 52.13327 7.69279 166 ft 16 kts 160°
2026-05-04 12:19 52.13224 7.69335 166 ft 16 kts 188°
2026-05-04 12:19 52.13167 7.69315 166 ft 0 kts 189°
2026-05-04 12:20 52.13165 7.69314 166 ft 0 kts 189°